Gao Fen 12-05

operational
NORAD ID: 61571 Int'l Des: 2024-186 Owner: ZLZB Country: CN
LEOCIRCULARRETROGRADESSO

Über Gao Fen 12-05

Beschreibung wird geladen...

Live-Position

3D-Globus wird geladen...

Nächste Überflüge

Höhenverlauf

Altitude vs Time

uPlot chart will show altitude changes over time

Zweizeiliger Elementsatz

1 61571U 24186A 26063.00302890 .00000733 00000-0 10171-3 0 9996
2 61571 97.9135 72.5357 0000620 100.5859 259.5424 14.80858791 73777
Epoch: 4. März 2026 • Age: 21 hours

Aktueller Status

Höhe 630.6 km
Geschwindigkeit 7.54 km/s
Subsatellitenpunkt -5.61°S, 45.4°W
Startdatum 15. Okt. 2024
Alter 1.3 years
Typ other

Technische Details

Klassifizierung Payload
Masse 3000.00 kg
Trockenmasse 3000.00 kg
Gesamtmasse 3000.00 kg
Länge 2.00 m
Durchmesser 2.00 m
Spannweite 8.00 m
Form Box + 3 Pan
Hersteller SAST
Bus-Typ CS-L3000B
Phasenstatus In Orbit
Besitzer/Staat ZLZB/CN

Große Konstellationen

Loading constellations...